Rimsat G2

operational
NORAD ID: 23108 Int'l Des: 1994-030 Owner: RIMSAT Country: US
HEOCIRCULAR

关于 Rimsat G2

正在加载描述...

实时位置

正在加载3D地球...

即将过境

高度历史

Altitude vs Time

uPlot chart will show altitude changes over time

两行轨道根数

1 23108U 94030A 26061.15145175 -.00000305 00000-0 00000-0 0 9993
2 23108 14.1038 348.9812 0005939 288.8177 252.2737 1.00210504116385
Epoch: Mar 2, 2026 • Age: 30 hours

当前状态

高度 35798.9 km
速度 3.07 km/s
星下点 -7.54°S, 45.47°W
发射日期 May 20, 1994
运行时间 31.7 years
类型 other

技术详情

分类 Payload
质量 2120.00 kg
干质量 2000.00 kg
总质量 2120.00 kg
长度 5.50 m
直径 3.30 m
跨度 9.50 m
形状 Cyl + 2 Pan
制造商 NPOPMR
平台类型 Gorizont
阶段状态 Unknown Active Status
所有者/国家 RIMSAT/US

大型星座

Loading constellations...